Tracking 29932 objects as of 3-Dec-2024
HD Live streaming from Space Station
objects crossing your sky now

STARLINK-31067

Track STARLINK-31067 now!
10-day predictions
STARLINK-31067 is classified as:


NORAD ID: 58608
Int'l Code: 2023-200V
Perigee: 565.5 km
Apogee: 566.9 km
Inclination: 43.0 °
Period: 95.8 minutes
Semi major axis: 6937 km
RCS: Unknown
Launch date: December 19, 2023
Source: United States (US)
Launch site: AIR FORCE EASTERN TEST RANGE (AFETR)
Your satellite tracking list
Your tracking list is empty




NASA's NSSDC Master Catalog

Two Line Element Set (TLE):
1 58608U 23200V   24337.84569616  .00001536  00000-0  12875-3 0  9999
2 58608  43.0016 159.5548 0001065 273.4025  86.6695 15.02541642 54127
Source of the keplerian elements: AFSPC